User: anonymous   Login
Location: Brede
(50.9167°N, 0.6000°E)
Time: 18:15:14
(UTC+00:00)
Language:

Cosmos 1607 - Orbit

View from above orbital plane
View from above orbital plane
View from above satellite
View from above satellite

Ground track
Ground track

The orbit data is extracted from the following two-line orbital elements,

1 15378U 84112A   20296.18771230 -.00000072  00000-0  14974-4 0  9997
2 15378  64.9942   4.3591 0056679 299.5517  59.9900 13.83567673819664
Epoch (UTC): 22 October 2020 04:30:18
Eccentricity: 0.0056679
inclination: 64.9942°
perigee height: 910 km
apogee height: 993 km
right ascension of ascending node: 4.3591°
argument of perigee: 299.5517°
revolutions per day: 13.83567673
mean anomaly at epoch: 59.9900°
orbit number at epoch: 81966

The dashed part of the orbit path shows where the satellite is in the earth's shadow,  

DLR